Location: Bretagne
(43.8474°N, 0.4650°W)
Time: 00:25:49
(UTC+00:00)

Envisat - Pass Details

Date: 11 March 2026
Orbit: 761 x 762 km, 98.4° (Epoch: 13 April)

Event Time Altitude Azimuth Distance (km) Brightness Sun altitude
Rises 03:37:04 0° 4° (N) 3,235 6.6 -29.7°
Reaches altitude 10° 03:39:34 10° 355° (N) 2,304 5.7 -29.3°
Enters shadow 03:41:19 20° 342° (NNW) 1,734 4.9 -29.0°
